User: anonymous   Login
Location: Unspecified
(0.0000°N, 0.0000°E)
Time: 13:42:55
(UTC+00:00)
Language:

FEDSAT - Orbit

View from above orbital plane
View from above orbital plane
View from above satellite
View from above satellite

Ground track
Ground track

The orbit data is extracted from the following two-line orbital elements,

1 27598U 02056B   17114.84931507 +.00000017 +00000-0 +23459-4 0  9990
2 27598 098.4274 072.3354 0010030 047.1128 313.0894 14.28620883748726
Epoch (UTC): 24 April 2017 20:23:00
Eccentricity: 0.0010030
inclination: 98.4274°
perigee height: 789 km
apogee height: 803 km
right ascension of ascending node: 72.3354°
argument of perigee: 47.1128°
revolutions per day: 14.28620883
mean anomaly at epoch: 313.0894°
orbit number at epoch: 74872

The dashed part of the orbit path shows where the satellite is in the earth's shadow,  

DLR